Location: Treviso
(45.6669°N, 12.2430°E)
Time: 07:30:39
(UTC+02:00)

ISS - Pass Details

Date: 17 May 2018
Orbit: 402 x 407 km, 51.6° (Epoch: 24 May)

Event Time Altitude Azimuth Distance (km) Brightness Sun altitude
Exits shadow 02:39:08 18° 307° (NW) 1,061 -1.6 -21.8°
Maximum altitude 02:40:48 28° 354° (N) 789 -1.8 -21.7°
Drops below altitude 10° 02:43:41 10° 56° (ENE) 1,458 -0.2 -21.5°
Sets 02:45:57 0° 69° (ENE) 2,318 0.7 -21.3°
